Torna al catalogo

CZ-6A DEB

AttivoPO
NORAD 60675·DEBRIS·🇨🇳 China

Lanciato Aug 6, 2024 da Taiyuan Satellite Launch Center

Loading…

Prossimi Passaggi (prossime 24 ore)

TLE

AggiornatoSource: Space-Track

Epoca: Sep 14, 2026, 07:52 UTC

1 60675U 24140CC  26257.32782413  .00000119  00000-0  57516-4 0  9996
2 60675  89.0084 267.0985 0081089 286.6271  72.6021 14.10899260108030

Traccia CZ-6A DEB in tempo reale con AllMySat

Download on the App Store